Flag for U.S.A. Weather past 2 weeks in Kilgore, Texas, U.S.A.

Now
42 °F

Fog.


Feels Like: 38 °F
Forecast: 42 / 47 °F
Wind: 7 mph from Northeast

Location: Gregg County Airport

Current Time: Mar 2, 2015 at 7:43:24 AM

Latest Report: Mar 2, 2015 at 6:53 AM


Visibility: 2 mi

Pressure: 30.34 "Hg

Humidity: 89%

Dew point: 39 °F

Location of KilgoreLocation

Historic Weather in Kilgore — Graph

°F

Kilgore temperature yesterday

Maximum temperature yesterday: 44 °F (at 3:53 PM)
Minimum temperature yesterday: 38 °F (at 4:53 AM)
Average temperature yesterday: 41 °F

Past Weeks' High & Low Weather Summary

 TemperatureHumidityPressure
High73 °F (Feb 21, 12:53 PM)93% (Feb 16, 1:53 AM)30.51 "Hg (Feb 16, 1:53 AM)
Low28 °F (Feb 23, 11:53 PM)26% (Feb 19, 12:53 PM)29.75 "Hg (Feb 21, 3:53 AM)
Average41 °F72%30.19 "Hg
* Reported Feb 15 5:53 AM — Mar 2 5:53 AM, Kilgore, Weather by CustomWeather, © 2015

Note: Actual official high and low records may vary slightly from our data, if they occured in-between our weather recording intervals... More about our weather records

Advertising

Kilgore weather history for previous 24 hours

 ConditionsComfort  
Time TempWeatherWind HumidityBarometerVisibility
5:53 AM
Mon, Mar 2
42 °FFog.12 mph92%30.32 "Hg5 mi
5:04 AM43 °FLight rain. Fog.7 mph89%30.31 "Hg5 mi
4:53 AM43 °FFog.7 mph89%30.32 "Hg4 mi
3:53 AM43 °FFog.5 mph93%30.32 "Hg6 mi
2:53 AM43 °FFog.6 mph93%30.33 "Hg6 mi
1:53 AM43 °FFog.3 mph93%30.33 "Hg3 mi
12:53 AM43 °FLight rain. Fog.5 mph93%30.34 "Hg3 mi
11:53 PM
Sun, Mar 1
43 °FLight rain. Fog.7 mph93%30.34 "Hg2 mi
10:53 PM43 °FFog.No wind93%30.34 "Hg4 mi
9:53 PM44 °FFog.No wind89%30.35 "Hg5 mi
8:53 PM44 °FFog.3 mph89%30.34 "Hg5 mi
7:53 PM44 °FLight rain. Fog.5 mph89%30.31 "Hg1 mi
6:53 PM44 °FLight rain. Fog.7 mph89%30.30 "Hg1 mi
5:53 PM44 °FFog.6 mph89%30.29 "Hg1 mi
4:58 PM44 °FFog.5 mph89%30.27 "Hg1 mi
3:53 PM44 °FLight rain. Fog.5 mph89%30.27 "Hg1 mi
2:53 PM43 °FLight rain. Fog.5 mph89%30.27 "Hg1 mi
1:53 PM43 °FFog.5 mph89%30.29 "Hg1 mi
12:53 PM41 °FFog.8 mph93%30.29 "Hg1 mi
12:00 PM40 °FLight rain. Fog.7 mph89%30.31 "Hg1 mi
10:53 AM39 °FLight rain. Fog.6 mph89%30.33 "Hg1 mi
9:53 AM39 °FLight rain. Fog.6 mph89%30.33 "Hg2 mi
8:53 AM38 °FFog.7 mph90%30.33 "Hg2 mi
7:53 AM38 °FFog.5 mph90%30.31 "Hg3 mi
Weather by CustomWeather, © 2015

See weather overviewHow to use our weather pages